This demonstration page uses our WeatherBlox Daily Observations layout. Learn more.

Hourly Observations for June 23, 2015

Temp ( °F °C ) Dew Point ( °F °C ) Humidity (%) Winds ( mph kmh ) Pressure ( in mb ) Visibility ( mi km ) Precip ( " mm )
12:35 am 00:35 Clear 59 15.2 52 11 76 76 N 8 13 30.09 1019 10 16.0934 0 0
12:55 am 00:55 Clear 59 14.8 52 11.1 79 79 N 7 11 30.09 1019 10 16.0934 0 0
1:15 am 01:15 Clear 58 14.5 52 11.1 80 80 Calm 30.09 1019 10 16.0934 0 0
1:35 am 01:35 Clear 60 15.5 51 10.6 73 73 Calm 30.09 1019 10 16.0934 0 0
1:55 am 01:55 Clear 60 15.3 51 10.6 74 74 S 3 6 30.09 1019 10 16.0934 0 0
2:15 am 02:15 Clear 60 15.5 51 10.5 72 72 S 3 6 30.09 1019 10 16.0934 0 0
2:35 am 02:35 Clear 57 14.1 51 10.4 79 79 Calm 30.09 1019 10 16.0934 0 0
2:55 am 02:55 Clear 56 13.5 51 10.7 83 83 SE 3 6 30.09 1019 10 16.0934 0 0
3:15 am 03:15 Partly Cloudy 57 13.7 51 10.5 81 81 Calm 30.09 1019 10 16.0934 0 0
3:35 am 03:35 Mostly Cloudy 57 14.1 52 11 82 82 E 3 6 30.09 1019 10 16.0934 0 0
3:55 am 03:55 Mostly Cloudy 59 15 53 11.5 80 80 E 3 6 30.09 1019 10 16.0934 0 0
4:15 am 04:15 Cloudy 60 15.8 53 11.5 76 76 E 3 6 30.09 1019 10 16.0934 0 0
4:35 am 04:35 Mostly Cloudy 60 15.6 53 11.4 76 76 E 5 7 30.09 1019 10 16.0934 0 0
4:55 am 04:55 Cloudy 60 15.8 53 11.5 76 76 E 5 7 30.09 1019 10 16.0934 0 0
5:15 am 05:15 Mostly Cloudy 60 15.6 52 11.1 75 75 E 6 9 30.09 1019 10 16.0934 0 0
5:35 am 05:35 Partly Cloudy 59 14.8 52 11.2 79 79 ESE 7 11 30.09 1019 10 16.0934 0 0
5:55 am 05:55 Clear 58 14.5 52 11 80 80 E 3 6 30.09 1019 10 16.0934 0 0
6:15 am 06:15 Mostly Cloudy 59 15.1 52 11.3 78 78 Calm 30.12 1020 10 16.0934 0 0
6:35 am 06:35 Cloudy 60 15.5 54 12 80 80 Calm 30.12 1020 10 16.0934 0 0
6:55 am 06:55 Cloudy 61 16 53 11.7 76 76 Calm 30.12 1020 10 16.0934 0 0
7:15 am 07:15 Cloudy 61 16 54 12.1 78 78 Calm 30.12 1020 10 16.0934 0 0
7:35 am 07:35 Cloudy 62 16.5 54 12 75 75 ESE 3 6 30.12 1020 10 16.0934 0 0
7:55 am 07:55 Cloudy 63 17.1 53 11.7 71 71 ESE 6 9 30.12 1020 10 16.0934 0 0
8:15 am 08:15 Cloudy 64 17.7 53 11.8 69 69 SE 6 9 30.09 1019 10 16.0934 0 0
8:35 am 08:35 Cloudy 65 18.2 53 11.5 65 65 ESE 5 7 30.09 1019 10 16.0934 0 0
8:55 am 08:55 Cloudy 65 18.6 53 11.5 64 64 E 7 11 30.09 1019 10 16.0934 0 0
9:15 am 09:15 Cloudy 66 19 54 12 64 64 ESE 9 15 30.09 1019 10 16.0934 0 0
9:35 am 09:35 Cloudy 67 19.3 54 12.2 64 64 ESE 7 11 30.09 1019 10 16.0934 0 0
9:55 am 09:55 Cloudy 67 19.5 54 12.3 63 63 ESE 6 9 30.09 1019 10 16.0934 0 0
10:15 am 10:15 Cloudy 68 19.8 53 11.6 59 59 ESE 9 15 30.09 1019 10 16.0934 0 0
10:35 am 10:35 Cloudy 68 20 53 11.6 59 59 ESE 10 17 30.09 1019 10 16.0934 0 0
10:55 am 10:55 Cloudy 68 19.8 53 11.4 59 59 E 9 15 30.09 1019 10 16.0934 0 0
11:15 am 11:15 Cloudy 68 20.1 53 11.6 58 58 ESE 13 20 30.09 1019 10 16.0934 0 0
11:35 am 11:35 Cloudy 68 20.1 53 11.6 58 58 ESE 10 17 30.09 1019 10 16.0934 0 0
11:55 am 11:55 Cloudy 68 20 53 11.9 60 60 ESE 10 17 30.12 1020 10 16.0934 0 0
12:15 pm 12:15 Cloudy 68 20.1 54 12.3 61 61 ESE 12 19 30.09 1019 10 16.0934 0 0
12:35 pm 12:35 Cloudy 69 20.8 55 12.5 59 59 ESE 12 19 30.06 1018 10 16.0934 0 0
12:55 pm 12:55 Cloudy 69 20.8 55 12.7 60 60 ESE 12 19 30.06 1018 10 16.0934 0 0
1:15 pm 13:15 Cloudy 71 21.7 55 12.6 56 56 E 15 24 30.06 1018 10 16.0934 0 0
1:35 pm 13:35 Mostly Cloudy 72 22.4 53 11.9 52 52 E 15 24 30.03 1017 10 16.0934 0 0
1:55 pm 13:55 Partly Cloudy 73 22.8 51 10.5 46 46 E 13 20 30.03 1017 10 16.0934 0 0
2:15 pm 14:15 Sunny 74 23.5 53 11.4 47 47 ESE 13 20 30.03 1017 10 16.0934 0 0
2:35 pm 14:35 Sunny 74 23.5 53 11.4 47 47 E 15 24 30.03 1017 10 16.0934 0 0
2:55 pm 14:55 Sunny 74 23.6 52 10.9 45 45 ESE 14 22 30.03 1017 10 16.0934 0 0
3:15 pm 15:15 Sunny 74 23.6 51 10.4 43 43 ESE 13 20 30.03 1017 10 16.0934 0 0
3:35 pm 15:35 Sunny 75 24 54 12.1 47 47 ESE 16 26 30.03 1017 10 16.0934 0 0
3:55 pm 15:55 Sunny 75 23.9 54 12 47 47 E 15 24 30.03 1017 10 16.0934 0 0
4:15 pm 16:15 Sunny 76 24.4 55 12.8 48 48 ESE 17 28 30.03 1017 10 16.0934 0 0
4:35 pm 16:35 Sunny 76 24.2 56 13.4 51 51 E 16 26 30.03 1017 10 16.0934 0 0
4:55 pm 16:55 Sunny 76 24.3 57 14 53 53 E 17 28 29.97 1015 10 16.0934 0 0
5:15 pm 17:15 Sunny 75 24.1 57 14 53 53 E 16 26 29.97 1015 10 16.0934 0 0
5:35 pm 17:35 Sunny 76 24.5 58 14.5 54 54 E 17 28 29.97 1015 10 16.0934 0 0
5:55 pm 17:55 Sunny 76 24.5 58 14.6 54 54 E 15 24 29.97 1015 10 16.0934 0 0
6:15 pm 18:15 Sunny 75 24 58 14.7 56 56 E 18 30 29.97 1015 10 16.0934 0 0
6:35 pm 18:35 Sunny 74 23.5 59 14.9 59 59 E 17 28 29.97 1015 10 16.0934 0 0
6:55 pm 18:55 Sunny 73 23 59 15.1 61 61 E 16 26 30 1016 10 16.0934 0 0
7:15 pm 19:15 Sunny 73 22.8 59 15.1 62 62 E 18 30 29.97 1015 10 16.0934 0 0
7:35 pm 19:35 Sunny 72 22.3 58 14.7 62 62 E 17 28 29.97 1015 10 16.0934 0 0
7:55 pm 19:55 Sunny 72 22 59 14.9 64 64 E 14 22 29.97 1015 10 16.0934 0 0
8:15 pm 20:15 Sunny 71 21.4 59 15 67 67 E 17 28 29.97 1015 10 16.0934 0 0
8:35 pm 20:35 Sunny 70 20.9 58 14.7 68 68 E 12 19 30 1016 10 16.0934 0 0
8:55 pm 20:55 Sunny 69 20.4 58 14.6 69 69 E 12 19 30 1016 10 16.0934 0 0
9:15 pm 21:15 Clear 68 20 57 14 69 69 E 13 20 30 1016 10 16.0934 0 0
9:35 pm 21:35 Clear 67 19.5 57 14 71 71 ENE 10 17 30 1016 10 16.0934 0 0
9:55 pm 21:55 Clear 66 19.1 58 14.5 75 75 ENE 10 17 30 1016 10 16.0934 0 0
10:15 pm 22:15 Clear 66 18.7 58 14.7 78 78 ENE 9 15 30 1016 10 16.0934 0 0
10:35 pm 22:35 Clear 65 18.5 59 15 80 80 ENE 10 17 30 1016 10 16.0934 0 0
10:55 pm 22:55 Clear 65 18.5 58 14.7 79 79 E 9 15 30 1016 10 16.0934 0 0
11:15 pm 23:15 Clear 65 18.3 58 14.5 79 79 E 9 15 30 1016 10 16.0934 0 0
11:35 pm 23:35 Clear 65 18.1 58 14.5 80 80 E 12 19 30 1016 10 16.0934 0 0
11:55 pm 23:55 Clear 64 18 58 14.6 81 81 E 12 19 29.97 1015 10 16.0934 0 0

Powered by AerisWeather